Weather History for Hebron, NE

Change the Weather History Date:

Thursday, February 20, 2014

  Actual Average Record
Temperature  
Mean Temperature 36 °F -  
Max Temperature 45 °F 44 °F 67 °F (1981)
Min Temperature 25 °F 20 °F 0 °F (1959)
Degree Days  
Heating Degree Days 30    
Moisture  
Dew Point 26 °F    
Average Humidity 71    
Maximum Humidity 95    
Minimum Humidity 34    
Precipitation  
Precipitation 0.02 in - - ()
Sea Level Pressure  
Sea Level Pressure 29.66 in    
Wind  
Wind Speed 9 mph (NNW)    
Max Wind Speed 28 mph    
Max Gust Speed 37 mph    
Visibility 9 miles    
Events Rain , Snow , Thunderstorm    
Averages and records for this station are not official NWS values.
T = Trace of Precipitation, MM = Missing Value Source: NWS Daily Summary

Daily Weather History Graph

Daily Weather History Graph

Search for Another Location

Airport:

Trip Planner

Search our weather history database for the weather conditions in past years. The results will help you decide how hot, cold, wet, or windy it might be!

Date:

Astronomy

Feb. 20, 2014 Rise Set
Actual Time 7:16 AM CST 6:11 PM CST
Civil Twilight 6:49 AM CST 6:39 PM CST
Nautical Twilight 6:17 AM CST 7:11 PM CST
Astronomical Twilight 5:46 AM CST 7:42 PM CST
Moon No Moon Rise 10:00 AM CST (2/20)
Length of Visible Light 11h 50m
Length of Day
10h 55m
Waning Gibbous, 70% of the Moon is Illuminated
Feb 20
Waning Gibbous
Feb 22
Last Quarter
Mar 1
New
Mar 8
First Quarter
Mar 16
Full

Hourly Weather History & Observations

Time (CST) Temp. Windchill Dew Point Humidity Pressure Visibility Wind Dir Wind Speed Gust Speed Precip Events Conditions
12:15 AM 34.9 °F 32.0 °F 27.5 °F 74% 29.53 in 10.0 mi ENE 3.5 mph - N/A   Clear
12:35 AM 33.4 °F 29.1 °F 27.3 °F 78% 29.51 in 10.0 mi ESE 4.6 mph - N/A   Clear
12:55 AM 33.1 °F - 27.3 °F 79% 29.51 in 10.0 mi Calm Calm - N/A   Clear
1:15 AM 33.8 °F - 28.4 °F 81% 29.51 in 10.0 mi Calm Calm - N/A   Clear
1:35 AM 32.2 °F 27.7 °F 28.2 °F 85% 29.51 in 10.0 mi North 4.6 mph - N/A   Clear
1:55 AM 33.3 °F - 29.5 °F 86% 29.53 in 10.0 mi Calm Calm - N/A   Clear
2:15 AM 33.8 °F - 30.2 °F 87% 29.53 in 10.0 mi Calm Calm - N/A   Scattered Clouds
2:35 AM 33.8 °F - 30.6 °F 88% 29.54 in 10.0 mi Calm Calm - N/A   Mostly Cloudy
2:55 AM 33.6 °F 30.6 °F 30.6 °F 89% 29.52 in 10.0 mi North 3.5 mph - N/A   Mostly Cloudy
3:15 AM 35.6 °F 32.8 °F 31.8 °F 86% 29.52 in 10.0 mi NNE 3.5 mph - N/A   Mostly Cloudy
3:35 AM 35.8 °F 28.3 °F 31.8 °F 86% 29.49 in 10.0 mi North 10.4 mph - N/A Thunderstorm Scattered Clouds
3:55 AM 34.9 °F 25.7 °F 30.9 °F 85% 29.50 in 10.0 mi NNW 13.8 mph 18.4 mph N/A   Scattered Clouds
4:15 AM 37.0 °F 29.8 °F 31.5 °F 80% 29.53 in 10.0 mi NNW 10.4 mph 19.6 mph N/A   Mostly Cloudy
4:35 AM 37.2 °F 32.6 °F 30.9 °F 78% 29.54 in 10.0 mi NNW 5.8 mph - N/A   Overcast
4:55 AM 36.7 °F 28.4 °F 29.7 °F 76% 29.51 in 10.0 mi NNW 12.7 mph 16.1 mph N/A   Overcast
5:15 AM 36.3 °F 26.4 °F 29.1 °F 75% 29.51 in 10.0 mi North 17.3 mph 21.9 mph N/A   Overcast
5:35 AM 37.0 °F 25.9 °F 29.3 °F 74% 29.50 in 10.0 mi North 23.0 mph 28.8 mph N/A   Mostly Cloudy
5:55 AM 37.6 °F 28.1 °F 29.7 °F 73% 29.51 in 10.0 mi North 17.3 mph 33.4 mph N/A   Overcast
6:15 AM 37.6 °F 27.1 °F 29.8 °F 74% 29.52 in 10.0 mi North 20.7 mph 25.3 mph N/A   Overcast
6:35 AM 37.6 °F 27.7 °F 30.0 °F 74% 29.52 in 10.0 mi North 18.4 mph 28.8 mph N/A   Overcast
6:55 AM 37.8 °F 27.1 °F 30.4 °F 75% 29.53 in 10.0 mi North 21.9 mph 33.4 mph N/A Rain Light Rain
7:15 AM 35.2 °F 24.7 °F 32.0 °F 88% 29.58 in 4.0 mi NNW 18.4 mph 32.2 mph N/A Rain , Thunderstorm Light Thunderstorms and Rain
7:35 AM 33.8 °F 22.5 °F 32.0 °F 93% 29.56 in 1.2 mi NNW 19.6 mph 28.8 mph N/A Snow Light Snow
7:55 AM 33.3 °F 22.5 °F 32.0 °F 95% 29.61 in 0.8 mi NNW 17.3 mph 25.3 mph 0.01 in Snow Snow
8:15 AM 33.3 °F 21.2 °F 32.0 °F 95% 29.59 in 0.8 mi North 21.9 mph 27.6 mph 0.01 in Snow Snow
8:35 AM 33.4 °F 21.7 °F 32.0 °F 94% 29.59 in 0.8 mi North 20.7 mph 31.1 mph 0.01 in Snow Light Snow
8:55 AM 33.8 °F 21.9 °F 32.0 °F 93% 29.60 in 1.5 mi North 21.9 mph 29.9 mph 0.01 in Snow Light Snow
9:15 AM 33.8 °F 22.8 °F 32.0 °F 93% 29.62 in 1.2 mi NNW 18.4 mph 24.2 mph N/A Snow Light Snow
9:35 AM 33.8 °F 22.5 °F 32.0 °F 93% 29.61 in 1.8 mi North 19.6 mph 28.8 mph N/A Snow Light Snow
9:55 AM 34.0 °F 25.0 °F 32.0 °F 92% 29.65 in 5.0 mi North 12.7 mph 20.7 mph N/A Snow Light Snow
10:15 AM 34.3 °F 24.6 °F 32.0 °F 91% 29.64 in 10.0 mi NNW 15.0 mph 21.9 mph N/A   Overcast
10:35 AM 34.7 °F 25.1 °F 32.0 °F 90% 29.64 in 10.0 mi NNW 15.0 mph 23.0 mph N/A   Overcast
10:55 AM 35.6 °F 27.1 °F 32.0 °F 87% 29.63 in 10.0 mi NW 12.7 mph - N/A   Overcast
12:35 PM 42.3 °F 33.6 °F 28.8 °F 59% 29.65 in 10.0 mi NNW 19.6 mph 35.7 mph N/A   Clear
2:15 PM 45.5 °F 37.1 °F 22.5 °F 40% 29.68 in 10.0 mi NW 23.0 mph 32.2 mph N/A   Scattered Clouds
2:35 PM 45.5 °F 36.3 °F 21.2 °F 38% 29.69 in 10.0 mi NW 27.6 mph 36.8 mph N/A   Scattered Clouds
5:15 PM 43.0 °F 34.5 °F 16.3 °F 34% 29.76 in 10.0 mi NW 19.6 mph 32.2 mph N/A   Mostly Cloudy
5:35 PM 41.0 °F 30.9 °F 17.1 °F 38% 29.77 in 10.0 mi NNW 24.2 mph 31.1 mph N/A   Scattered Clouds
5:55 PM 38.8 °F 29.7 °F 17.8 °F 43% 29.78 in 10.0 mi NNW 17.3 mph 28.8 mph N/A   Scattered Clouds
6:15 PM 37.6 °F 30.5 °F 19.2 °F 48% 29.80 in 10.0 mi NNW 10.4 mph 19.6 mph N/A   Scattered Clouds
6:35 PM 36.5 °F 29.2 °F 19.6 °F 50% 29.80 in 10.0 mi NW 10.4 mph 18.4 mph N/A   Scattered Clouds
6:55 PM 35.8 °F 30.1 °F 20.3 °F 53% 29.81 in 10.0 mi NW 6.9 mph - N/A   Clear
7:15 PM 34.7 °F 28.1 °F 20.3 °F 56% 29.82 in 10.0 mi WNW 8.1 mph - N/A   Clear
7:35 PM 33.1 °F 26.9 °F 20.3 °F 59% 29.82 in 10.0 mi West 6.9 mph - N/A   Clear
7:55 PM 33.4 °F 25.9 °F 19.4 °F 56% 29.83 in 10.0 mi WNW 9.2 mph - N/A   Clear
8:15 PM 34.7 °F 26.4 °F 16.7 °F 48% 29.83 in 10.0 mi WNW 11.5 mph 17.3 mph N/A   Clear
8:35 PM 33.8 °F 25.8 °F 16.9 °F 50% 29.84 in 10.0 mi WNW 10.4 mph - N/A   Clear
8:55 PM 32.9 °F 25.9 °F 16.9 °F 52% 29.84 in 10.0 mi WNW 8.1 mph - N/A   Clear
9:15 PM 32.5 °F 27.1 °F 16.7 °F 52% 29.85 in 10.0 mi NW 5.8 mph - N/A   Clear
9:35 PM 32.0 °F 24.8 °F 16.7 °F 53% 29.85 in 10.0 mi WNW 8.1 mph - N/A   Clear
9:55 PM 31.8 °F 24.6 °F 16.9 °F 54% 29.85 in 10.0 mi WNW 8.1 mph - N/A   Clear
10:15 PM 31.8 °F 25.4 °F 16.7 °F 54% 29.86 in 10.0 mi West 6.9 mph - N/A   Clear
10:35 PM 28.8 °F 23.7 °F 17.2 °F 62% 29.86 in 10.0 mi West 4.6 mph - N/A   Clear
10:55 PM 27.5 °F 21.1 °F 17.6 °F 66% 29.85 in 10.0 mi West 5.8 mph - N/A   Clear
11:15 PM 27.1 °F 19.7 °F 17.4 °F 67% 29.85 in 10.0 mi West 6.9 mph - N/A   Clear
11:35 PM 26.4 °F 19.8 °F 17.6 °F 69% 29.85 in 10.0 mi WSW 5.8 mph - N/A   Clear
11:55 PM 25.5 °F 19.9 °F 18.1 °F 74% 29.85 in 10.0 mi WSW 4.6 mph - N/A   Clear